Vertical_Velocity
-1 -3 3 -3 0 1 0 -3 -0 -1 -1 -2 -0 -5 -1 -1 -2 -2 -1 0 -1 -1 -1 -0 -1 -1 -2 -1 -1 -0 0 -1 -1
-1 0 -1 0 0 0 1 -2 0 2 -2 -1 -1 -2 0 0 -0 -0 1 -1 -1 -1 -1 -1 -1 0 -1 -1 -2 -0 -1 -2 -0
-0 -1 1 1 0 -0 -0 0 0 -2 1 -1 -0 -0 -1 0 -1 -0 -0 -1 -1 -1 -0 -2 -3 -1 -1 -1 -1 -1 1 -0 -0
-1 -0 -1 -0 -1 -1 -0 -1 1 -2 1 -1 -1 -0 1 -1 -0 -1 -0 1 -1 -2 1 -1 -2 -1 -1 -1 -1 -1 -1 0 -1
-1 -2 -0 -2 0 -3 1 -2 -0 -1 -1 -1 -0 -1 -1 -1 -0 -0 -1 0 -2 -1 0 -0 0 0 -1 -1 -1 -0 -1 1 -1
-0 -3 -2 -0 -2 -1 2 -1 0 -0 -0 -1 0 -0 -0 -0 -0 0 1 -0 -0 -0 -0 -1 -1 -1 -1 -1 -0 -3 -1 0 -1
-1 -2 -1 -2 -2 1 -0 -1 -1 0 -1 -2 0 -0 -1 1 -1 -2 -0 -0 -1 -0 0 -1 -1 -1 -1 1 -1 0 -1 -1 -1
1 2 -3 -1 -1 -1 1 -2 -1 -1 -1 -2 -1 -2 -1 0 -1 -1 -1 -0 0 -0 -1 -0 -1 -1 -0 -0 -2 -1 -1 -0 0
0 2 -0 -2 -1 0 1 1 1 -1 -3 -1 1 -1 -1 -3 -2 -2 -1 -1 -2 -1 -0 -0 0 0 -0 -0 -1 0 0 -2 -1
-3 -3 0 -0 -1 1 -0 -0 -1 -1 -2 -2 -0 -1 -3 -2 -1 -2 -1 -1 -1 1 -0 0 -1 -1 -1 0 -0 -2 0 -0 -2
1 -2 -2 -2 -0 2 2 2 0 1 -0 -0 0 0 0 -3 -1 -2 -1 -1 -0 -0 -0 0 -1 -2 -2 -2 -2 -0 -0 -0 -3
-0 -0 -0 0 -2 -0 -1 -1 1 2 0 0 -0 -0 -0 -1 -3 -2 -1 -2 -1 -1 -0 -1 1 -0 1 1 0 1 -0 -1 1
-2 0 -3 -1 -1 0 1 0 1 0 0 1 2 1 -0 0 -2 -2 -1 -1 0 -0 1 0 0 -0 -1 -2 -0 2 1 1 -1
-2 -3 -1 4 1 1 1 0 -0 0 -1 -0 1 1 1 2 1 1 -1 -0 1 0 -0 2 -1 1 1 -1 -2 -3 -0 -1 0
-1 0 -1 -3 -1 -1 -0 -0 0 -1 -1 -1 -2 -1 0 2 0 1 -1 -1 0 1 0 2 1 -0 -1 -2 -1 -0 1 -0 -0
-0 2 -1 -2 -3 -2 1 0 2 2 1 2 -1 -1 0 -2 -2 1 1 1 0 -3 2 2 2 1 0 1 2 -2 -4 10 4
-1 -0 2 1 1 -1 -1 2 -0 0 2 -2 2 -2 1 1 -1 -1 0 -0 0 0 1 3 1 -0 1 -1 -1 -1 2 -1 6
2 0 -2 0 0 -0 -1 -1 -1 0 3 0 -1 -1 -3 -2 -2 -0 -3 0 1 1 3 -0 -0 -0 -2 -0 0 2 -3 -2 -1
1 2 6 3 3 10 -1 0 2 -1 4 1 2 -4 2 0 -2 2 2 -2 -1 1 0 3 1 0 1 -2 -3 -4 -0 1 1
-3 9 17 -15 -4 5 9 -7 -2 8 4 3 13 -0 0 0 -1 -7 -3 4 1 -1 -0 3 3 1 1 -1 4 -3 -2 -5 -4
Height
1558 1560 1563 1566 1568 1570 1572 1574 1577 1578 1580 1582 1581 1581 1583 1583 1583 1583 1582 1582 1582 1582 1582 1582 1582 1581 1581 1581 1581 1580 1579 1578 1577
1559 1562 1565 1568 1569 1572 1575 1577 1579 1581 1583 1583 1583 1584 1585 1585 1585 1584 1584 1584 1584 1584 1584 1584 1584 1584 1583 1583 1583 1582 1581 1580 1580
1561 1564 1567 1570 1572 1575 1577 1579 1582 1583 1585 1586 1586 1586 1587 1587 1587 1587 1586 1586 1586 1586 1586 1585 1585 1585 1585 1585 1585 1584 1584 1583 1582
1563 1566 1569 1571 1574 1577 1579 1581 1584 1585 1587 1588 1587 1588 1589 1589 1589 1589 1589 1588 1588 1588 1588 1587 1587 1587 1587 1587 1586 1586 1586 1585 1584
1565 1567 1570 1573 1576 1579 1581 1583 1585 1587 1588 1589 1589 1589 1590 1590 1591 1591 1591 1591 1590 1590 1589 1589 1588 1588 1588 1588 1588 1588 1587 1586 1585
1566 1569 1571 1574 1578 1580 1582 1585 1587 1589 1589 1590 1591 1590 1592 1593 1593 1593 1593 1592 1592 1592 1591 1591 1590 1590 1589 1589 1589 1589 1588 1588 1587
1568 1570 1573 1576 1579 1581 1583 1586 1588 1590 1591 1592 1592 1591 1593 1594 1595 1595 1595 1594 1594 1594 1593 1592 1592 1591 1590 1590 1590 1590 1589 1588 1588
1569 1571 1574 1577 1579 1582 1584 1586 1588 1590 1592 1593 1593 1593 1594 1595 1595 1595 1596 1595 1595 1594 1594 1593 1593 1592 1592 1591 1591 1591 1590 1589 1588
1570 1572 1575 1578 1580 1582 1584 1586 1588 1590 1591 1593 1594 1594 1594 1594 1595 1595 1596 1595 1595 1595 1594 1594 1593 1593 1593 1592 1592 1591 1591 1590 1589
1570 1573 1576 1578 1581 1583 1584 1586 1588 1589 1590 1592 1593 1594 1593 1594 1594 1595 1595 1595 1595 1595 1594 1594 1593 1593 1593 1592 1591 1591 1590 1590 1589
1570 1573 1575 1578 1581 1583 1584 1586 1587 1589 1590 1591 1592 1593 1594 1593 1593 1594 1594 1594 1594 1594 1594 1594 1593 1593 1592 1592 1591 1590 1590 1589 1588
1570 1572 1574 1577 1579 1581 1583 1584 1586 1588 1589 1590 1590 1591 1592 1592 1592 1593 1593 1593 1593 1594 1593 1593 1592 1592 1591 1591 1590 1590 1589 1589 1588
1570 1572 1573 1575 1578 1580 1582 1584 1585 1586 1587 1588 1589 1589 1590 1590 1591 1591 1591 1592 1592 1592 1592 1592 1592 1591 1590 1589 1588 1589 1588 1587 1587
1568 1571 1574 1576 1578 1579 1581 1582 1583 1584 1585 1586 1587 1588 1588 1589 1589 1590 1589 1590 1590 1591 1591 1591 1590 1589 1589 1588 1588 1587 1587 1586 1586
1565 1568 1570 1573 1575 1577 1578 1579 1580 1581 1582 1583 1584 1585 1586 1586 1587 1587 1588 1587 1588 1588 1589 1589 1588 1587 1586 1586 1586 1586 1585 1584 1583
1562 1564 1566 1569 1571 1573 1575 1576 1577 1578 1579 1580 1581 1582 1583 1583 1584 1585 1585 1586 1586 1586 1586 1585 1585 1585 1584 1584 1583 1583 1584 1583 1582
1559 1561 1564 1565 1567 1569 1571 1573 1574 1576 1576 1577 1578 1579 1580 1579 1580 1581 1582 1583 1583 1583 1584 1583 1582 1582 1582 1582 1582 1581 1581 1581 1579
1554 1557 1560 1563 1564 1564 1566 1569 1571 1573 1574 1574 1575 1576 1576 1577 1577 1578 1579 1580 1580 1580 1580 1579 1578 1578 1578 1578 1578 1577 1577 1577 1576
1552 1552 1554 1559 1561 1560 1561 1566 1567 1569 1570 1571 1571 1573 1575 1574 1575 1575 1574 1576 1577 1577 1577 1576 1575 1575 1574 1573 1573 1573 1573 1572 1571
1548 1547 1549 1553 1552 1554 1556 1560 1562 1564 1566 1567 1566 1569 1571 1570 1571 1570 1572 1573 1572 1573 1573 1572 1572 1572 1570 1569 1568 1567 1567 1567 1566